Custer, SD

1:58 PM MST on January 20, 2017 (GMT -0700)
Custer County

Weather History for KCUT - June, 2013

Change the Weather History Date:

Saturday, June 29, 2013

  Actual Average Record
Temperature  
Mean Temperature 62 °F 63 °F  
Max Temperature 74 °F 76 °F 95 °F (2002)
Min Temperature 49 °F 50 °F 36 °F (1950)
Degree Days  
Heating Degree Days 3 4  
Month to date heating degree days 188 217  
Since 1 June heating degree days 188 217  
Since 1 July heating degree days 8268 8386  
Cooling Degree Days 0 2  
Month to date cooling degree days 9 22  
Year to date cooling degree days 11 23  
Since 1 June cooling degree days 9 22  
Growing Degree Days 11 (Base 50)    
Moisture  
Dew Point 47 °F    
Average Humidity 63    
Maximum Humidity 86    
Minimum Humidity 39    
Precipitation  
Precipitation 0.00 in 0.10 in 1.09 in (2015)
Month to date precipitation 1.65 3.13  
Year to date precipitation 8.18 10.24  
Sea Level Pressure  
Sea Level Pressure 30.11 in    
Wind  
Wind Speed 6 mph (ENE)    
Max Wind Speed 17 mph    
Max Gust Speed 23 mph    
Visibility 10 miles    
Events      
T = Trace of Precipitation, MM = Missing Value Source: NWS Daily Summary

Daily Weather History Graph

Daily Weather History Graph

Search for Another Location

Airport or City:

Trip Planner

Search our weather history database for the weather conditions in past years. The results will help you decide how hot, cold, wet, or windy it might be!

Date:

Astronomy

Jun. 29, 2013 Rise Set
Actual Time 5:15 AM MDT 8:40 PM MDT
Civil Twilight 4:39 AM MDT 9:16 PM MDT
Nautical Twilight 3:52 AM MDT 10:03 PM MDT
Astronomical Twilight 2:53 AM MDT 11:01 PM MDT
Moon No Moon Rise 12:44 PM MDT (6/29)
Length of Visible Light 16h 36m
Length of Day
15h 24m
Waning Gibbous, 55% of the Moon is Illuminated
Jun 29
Waning Gibbous
Jun 29
Last Quarter
Jul 8
New
Jul 15
First Quarter
Jul 22
Full

Hourly Weather History & Observations

Time (MDT) Temp. Dew Point Humidity Pressure Visibility Wind Dir Wind Speed Gust Speed Precip Events Conditions
12:53 AM 55.9 °F 48.9 °F 77% 30.14 in 10.0 mi NW 4.6 mph - N/A   Clear
1:53 AM 53.1 °F 48.0 °F 83% 30.14 in 10.0 mi WNW 3.5 mph - N/A   Partly Cloudy
2:53 AM 53.1 °F 48.0 °F 83% 30.14 in 10.0 mi Calm Calm - N/A   Clear
3:53 AM 51.1 °F 46.9 °F 86% 30.14 in 10.0 mi Calm Calm - N/A   Clear
4:53 AM 50.0 °F 46.9 °F 89% 30.14 in 10.0 mi Calm Calm - N/A   Clear
5:53 AM 51.1 °F 46.9 °F 86% 30.14 in 10.0 mi NNW 3.5 mph - N/A   Partly Cloudy
6:53 AM 60.1 °F 51.1 °F 72% 30.11 in 10.0 mi Calm Calm - N/A   Clear
7:53 AM 66.0 °F 51.1 °F 59% 30.09 in 10.0 mi Calm Calm - N/A   Clear
8:53 AM 68.0 °F 48.0 °F 49% 30.10 in 10.0 mi Variable 6.9 mph - N/A   Scattered Clouds
9:53 AM 72.0 °F 48.9 °F 44% 30.09 in 10.0 mi NNE 8.1 mph 16.1 mph N/A   Mostly Cloudy
10:53 AM 71.1 °F 52.0 °F 51% 30.11 in 10.0 mi East 11.5 mph - N/A   Partly Cloudy
11:53 AM 70.0 °F 51.1 °F 51% 30.11 in 10.0 mi East 9.2 mph 16.1 mph N/A   Mostly Cloudy
12:53 PM 69.1 °F 51.1 °F 53% 30.12 in 10.0 mi Variable 6.9 mph - N/A   Mostly Cloudy
1:53 PM 70.0 °F 51.1 °F 51% 30.12 in 10.0 mi ESE 8.1 mph - N/A   Mostly Cloudy
2:53 PM 71.1 °F 50.0 °F 47% 30.10 in 10.0 mi ENE 8.1 mph - N/A   Scattered Clouds
3:53 PM 70.0 °F 48.9 °F 47% 30.11 in 10.0 mi East 10.4 mph - N/A   Mostly Cloudy
4:53 PM 72.0 °F 48.0 °F 43% 30.10 in 10.0 mi East 10.4 mph 17.3 mph N/A   Clear
5:53 PM 70.0 °F 45.0 °F 41% 30.09 in 10.0 mi East 12.7 mph 18.4 mph N/A   Clear
6:53 PM 68.0 °F 42.1 °F 39% 30.07 in 10.0 mi ENE 15.0 mph 19.6 mph N/A   Clear
7:53 PM 64.9 °F 39.9 °F 40% 30.07 in 10.0 mi East 10.4 mph - N/A   Clear
8:53 PM 61.0 °F 39.0 °F 44% 30.09 in 10.0 mi ENE 5.8 mph - N/A   Clear
9:53 PM 59.0 °F 39.0 °F 48% 30.10 in 10.0 mi NE 5.8 mph - N/A   Partly Cloudy
10:53 PM 57.0 °F 39.9 °F 53% 30.12 in 10.0 mi NNE 3.5 mph - N/A   Clear
11:53 PM 53.1 °F 39.9 °F 61% 30.13 in 10.0 mi Calm Calm - N/A   Clear